Flag for Germany Weather past 2 weeks in Landsberg am Lech, Bavaria, Germany

Now
68 °F

Mild.


Feels Like: 68 °F
Forecast: 52 / 64 °F
Wind: 3 mph from Northwest

Location: Landsberg

Current Time: Aug 30, 2014 at 9:04:42 PM

Latest Report: Aug 30, 2014 at 7:20 PM


Visibility: 3 mi

Pressure: 30.07 "Hg

Humidity: 60%

Dew point: 54 °F

Location of Landsberg am LechLocation

Historic Weather in Landsberg am Lech — Graph

°F

Landsberg am Lech temperature yesterday

Maximum temperature yesterday: 72 °F (at 4:20 PM)
Minimum temperature yesterday: 54 °F (at 3:20 AM)
Average temperature yesterday: 62 °F

Past Weeks' High & Low Weather Summary

 TemperatureHumidityPressure
High72 °F (Aug 29, 4:20 PM)100% (Aug 21, 2:20 AM)30.18 "Hg (Aug 21, 2:20 AM)
Low43 °F (Aug 25, 4:20 AM)40% (Aug 17, 3:20 PM)29.77 "Hg (Aug 26, 6:20 AM)
Average58 °F75%30.03 "Hg
* Reported Aug 15 6:20 PM — Aug 30 6:20 PM, Landsberg am Lech, Weather by CustomWeather, © 2014

Note: Actual official high and low records may vary slightly from our data, if they occured in-between our weather recording intervals... More about our weather records

Advertising

Landsberg am Lech weather history for previous 24 hours

 ConditionsComfort  
Time TempWeatherWind HumidityBarometerVisibility
6:20 PM
Aug 30
70 °FMild.3 mph53%30.07 "Hg4 mi
5:20 PM72 °FMild.8 mph50%30.09 "Hg4 mi
4:20 PM70 °FMild.3 mph53%30.09 "Hg3 mi
3:20 PM68 °FPartly sunny.8 mph60%30.09 "HgN/A
2:20 PM68 °FBroken clouds.7 mph64%30.12 "HgN/A
1:20 PM66 °FBroken clouds.7 mph68%30.12 "HgN/A
12:20 PM68 °FScattered clouds.5 mph64%30.15 "HgN/A
11:20 AM66 °FBroken clouds.6 mph73%30.15 "HgN/A
10:20 AM63 °FScattered clouds.6 mph83%30.15 "HgN/A
9:20 AM61 °FPartly sunny.7 mph88%30.15 "Hg6 mi
8:20 AM59 °FBroken clouds.5 mph94%30.12 "Hg4 mi
7:20 AM59 °FCool.6 mph94%30.12 "Hg3 mi
6:20 AM59 °FCool.7 mph94%30.12 "Hg2 mi
5:20 AM59 °FCool.7 mph94%30.12 "Hg3 mi
4:20 AM61 °FCool.7 mph94%30.09 "Hg2 mi
3:20 AM61 °FCool.7 mph94%30.12 "Hg2 mi
2:20 AM61 °FCool.8 mph94%30.12 "Hg2 mi
1:20 AM61 °FCool.5 mph94%30.12 "Hg3 mi
12:20 AM61 °FCool.3 mph94%30.09 "Hg2 mi
11:20 PM
Aug 29
61 °FCool.1 mph94%30.09 "Hg3 mi
10:20 PM61 °FCool.2 mph94%30.09 "Hg2 mi
Weather by CustomWeather, © 2014

See weather overviewHow to use our weather pages